FW7889 Weather Reports


time (UTC)temp
F
wind
direction
speed
knots
gust
knots
rain 1hr
in
rain 24hr
in
rain mn
in
humidity
%
barometer
mb
20260503222646 47 359 1.7 2.6 0.00 0.00 0.00 47 1063.2
20260503221642 48 277 2.6 6.1 0.00 0.00 0.00 45 1063.3
20260503220641 47 298 7.0 9.6 0.00 0.00 0.00 45 1063.1
20260503215641 48 352 4.3 7.0 0.00 0.00 0.00 44 1063.3
20260503214636 48 293 5.2 7.0 0.00 0.00 0.00 44 1063.1
20260503213631 47 285 5.2 6.1 0.00 0.00 0.00 46 1063.3
20260503212631 48 334 3.5 4.3 0.00 0.00 0.00 46 1063.2
20260503211626 48 235 4.3 6.1 0.00 0.00 0.00 46 1063.3
20260503210623 48 297 4.3 6.1 0.00 0.00 0.00 46 1062.8
20260503205622 49 302 0.9 1.7 0.00 0.00 0.00 46 1062.9
20260503204621 50 257 4.3 6.1 0.00 0.00 0.00 46 1062.7
20260503203621 48 357 3.5 5.2 0.00 0.00 0.00 45 1063.1
20260503202621 48 283 3.5 4.3 0.00 0.00 0.00 43 1062.9
20260503201617 49 264 2.6 2.6 0.00 0.00 0.00 39 1062.9
20260503200615 49 302 4.3 6.1 0.00 0.00 0.00 40 1062.8
20260503195615 49 236 6.1 7.8 0.00 0.00 0.00 37 1062.9
20260503194615 49 269 4.3 5.2 0.00 0.00 0.00 37 1063.2
20260503193613 49 316 4.3 5.2 0.00 0.00 0.00 37 1063.0
20260503192610 49 245 0.9 4.3 0.00 0.00 0.00 36 1063.1
20260503191609 49 258 6.1 7.8 0.00 0.00 0.00 39 1063.3
20260503190609 48 332 9.6 12.2 0.00 0.00 0.00 39 1063.6
20260503185608 48 333 3.5 6.1 0.00 0.00 0.00 41 1063.5
20260503184603 47 321 4.3 6.1 0.00 0.00 0.00 43 1063.6
20260503183603 48 316 3.5 5.2 0.00 0.00 0.00 43 1063.6
20260503182558 48 344 6.1 7.0 0.00 0.00 0.00 43 1063.5
20260503181553 46 6 5.2 6.1 0.00 0.00 0.00 46 1063.7
20260503180552 46 324 6.1 7.8 0.00 0.00 0.00 46 1063.8
20260503175547 46 297 2.6 4.3 0.00 0.00 0.00 46 1063.8
20260503174547 46 337 5.2 7.0 0.00 0.00 0.00 47 1063.9
20260503173544 45 325 4.3 5.2 0.00 0.00 0.00 50 1064.2
20260503172544 46 351 5.2 7.0 0.00 0.00 0.00 48 1064.3
20260503171543 46 274 0.9 0.9 0.00 0.00 0.00 48 1064.1
20260503170543 44 335 4.3 5.2 0.00 0.00 0.00 52 1064.4
20260503150525 42 326 2.6 2.6 0.00 0.00 0.00 57 1065.2
20260503130516 38 266 1.7 1.7 0.00 0.00 0.00 76 1065.8
20260503110447 34 292 0.0 0.0 0.00 0.00 0.00 97 1065.6
20260503090431 33 283 0.0 0.0 0.00 0.00 0.00 98 1065.1
20260503081422 33 284 0.0 0.0 0.00 0.00 0.00 97 1065.5
20260503080421 33 277 0.0 0.0 0.00 0.00 0.00 98 1065.4
20260503072413 33 286 0.0 0.0 0.00 0.00 0.00 97 1065.2
20260503071413 33 286 0.0 0.0 0.00 0.00 0.00 97 1065.5
20260503070412 33 286 0.0 0.0 0.00 0.00 0.00 96 1065.1
20260503054350 34 283 0.0 0.0 0.00 0.00 0.00 94 1065.6
20260503053346 34 284 0.0 0.0 0.00 0.00 0.00 94 1065.9
20260503052345 34 280 0.0 0.0 0.00 0.00 0.00 93 1065.8
20260503051343 34 290 0.0 0.0 0.00 0.00 0.00 92 1065.8
20260503050342 34 275 0.0 0.0 0.00 0.00 0.00 91 1066.0
20260503045337 34 268 0.0 0.0 0.00 0.00 0.00 92 1066.1
20260503044336 35 268 0.0 0.0 0.00 0.00 0.00 92 1066.2
20260503043336 35 278 0.0 0.0 0.00 0.00 0.00 92 1066.2
20260503042335 35 277 0.0 0.0 0.00 0.00 0.00 91 1066.5
20260503041334 35 277 0.0 0.0 0.00 0.00 0.00 91 1066.6
20260503040329 35 277 0.0 0.0 0.00 0.00 0.00 89 1066.5
20260503035328 35 277 0.0 0.0 0.00 0.06 0.06 88 1066.6
20260503034328 35 277 0.0 0.0 0.00 0.06 0.06 87 1066.7
20260503033328 35 289 0.0 0.0 0.00 0.06 0.06 86 1066.5
20260503032325 36 290 0.0 0.0 0.00 0.06 0.06 86 1066.6
20260503031320 36 301 0.0 0.0 0.00 0.06 0.06 86 1066.4
20260503030318 36 299 0.9 0.9 0.00 0.06 0.06 86 1066.6
20260503025318 36 294 0.9 0.9 0.00 0.06 0.06 86 1066.7
20260503024317 36 292 0.0 0.0 0.00 0.06 0.06 84 1066.6
20260503023317 36 288 0.0 0.9 0.00 0.06 0.06 84 1066.6
20260503022314 36 292 0.0 0.9 0.00 0.06 0.06 84 1066.7
20260503021313 36 301 0.0 0.0 0.00 0.06 0.06 85 1066.7
20260503020308 36 303 0.0 0.9 0.00 0.06 0.06 85 1066.6
20260503015307 36 303 0.9 0.9 0.00 0.06 0.06 84 1066.8
20260503014307 36 304 0.9 0.9 0.00 0.06 0.06 83 1066.9
20260503013301 37 305 0.9 0.9 0.00 0.06 0.06 82 1066.9
20260503012301 37 302 0.0 0.9 0.00 0.06 0.06 82 1066.8
20260503011301 37 313 0.0 0.0 0.00 0.06 0.06 82 1066.8
20260503010300 37 318 0.9 1.7 0.00 0.06 0.06 82 1066.8
20260503005255 37 315 0.9 0.9 0.00 0.06 0.06 83 1066.9
20260503004255 37 306 0.0 0.9 0.00 0.06 0.06 82 1066.8
20260503003254 37 322 0.9 1.7 0.00 0.06 0.06 81 1066.6
20260503002254 37 296 0.9 0.9 0.00 0.06 0.06 80 1066.8
20260503001253 38 310 0.9 0.9 0.00 0.06 0.06 78 1066.2
20260503000248 38 348 1.7 1.7 0.00 0.06 0.06 77 1066.5
20260502235242 39 318 1.7 2.6 0.00 0.06 0.06 76 1066.4
20260502234242 39 318 3.5 4.3 0.00 0.06 0.06 74 1066.2
20260502233240 40 23 4.3 5.2 0.00 0.06 0.06 74 1066.0
20260502232239 40 320 0.9 0.9 0.00 0.06 0.06 72 1066.1
20260502231234 41 311 1.7 1.7 0.00 0.06 0.06 66 1065.7
20260502230230 41 278 1.7 1.7 0.00 0.06 0.06 64 1066.0
20260502225229 41 318 1.7 1.7 0.00 0.06 0.06 63 1066.0
20260502224228 41 330 2.6 2.6 0.00 0.06 0.06 62 1065.7
20260502223223 41 286 2.6 2.6 0.00 0.06 0.06 61 1065.7